RYR2YP LRTR-LOWI

Flight info

Callsign RYR2YP
Flight time 1h 3m
Altitude 36000
Route MOPUG DCT BUG DCT SVR DCT GRZ/N0437F350 DCT BRENO BRENO4B
Aircraft B738/M-SDE2E3FGHIRWXY/LB1

Departure

Time 2026-04-24 10:26
Airport Timișoara Traian Vuia International Airport (LRTR)

Arrival

Time 2026-04-24 11:29
Airport Innsbruck Airport (LOWI)
Time Latitude Longitude Altitude Speed Heading
2026-04-24 10:09 45.81061 21.32137 341 ft 0 kts 199°
2026-04-24 10:19 45.81073 21.32143 335 ft 2 kts 199°
2026-04-24 10:19 45.81089 21.32151 341 ft 2 kts 203°
2026-04-24 10:20 45.81103 21.32162 336 ft 2 kts 232°
2026-04-24 10:20 45.81107 21.32181 336 ft 1 kts 284°
2026-04-24 10:20 45.81106 21.32185 337 ft 0 kts 287°
2026-04-24 10:22 45.81106 21.32184 341 ft 1 kts 287°
2026-04-24 10:23 45.81112 21.32160 338 ft 5 kts 290°
2026-04-24 10:23 45.81129 21.32091 339 ft 10 kts 290°
2026-04-24 10:23 45.81161 21.31991 339 ft 12 kts 291°
2026-04-24 10:23 45.81191 21.31869 337 ft 13 kts 291°
2026-04-24 10:24 45.81226 21.31733 338 ft 15 kts 290°
2026-04-24 10:24 45.81273 21.31588 337 ft 17 kts 320°
2026-04-24 10:24 45.81382 21.31612 340 ft 17 kts 20°
2026-04-24 10:24 45.81482 21.31667 339 ft 11 kts 30°
2026-04-24 10:25 45.81495 21.31760 337 ft 6 kts 109°
2026-04-24 10:25 45.81464 21.31884 338 ft 50 kts 110°
2026-04-24 10:25 45.81245 21.32758 346 ft 134 kts 107°
2026-04-24 10:25 45.80868 21.34224 698 ft 173 kts 109°
2026-04-24 10:26 45.80403 21.35977 1479 ft 201 kts 109°
2026-04-24 10:26 45.79938 21.37936 2439 ft 210 kts 110°
2026-04-24 10:26 45.79490 21.40006 3222 ft 230 kts 102°
2026-04-24 10:26 45.79039 21.42300 3807 ft 243 kts 109°
2026-04-24 10:27 45.78435 21.44578 4478 ft 249 kts 110°
2026-04-24 10:27 45.78059 21.46981 5132 ft 251 kts 84°
2026-04-24 10:27 45.78332 21.48580 5555 ft 248 kts 60°
2026-04-24 10:27 45.79469 21.50386 6225 ft 245 kts 28°
2026-04-24 10:28 45.81093 21.51077 6891 ft 242 kts 360°
2026-04-24 10:28 45.82701 21.50649 7592 ft 239 kts 335°
2026-04-24 10:28 45.84275 21.49768 8186 ft 245 kts 346°
2026-04-24 10:28 45.85964 21.49484 9078 ft 245 kts
2026-04-24 10:29 45.87577 21.49772 9947 ft 245 kts 12°
2026-04-24 10:29 45.89219 21.50497 10721 ft 249 kts 18°
2026-04-24 10:29 45.90855 21.51351 11595 ft 250 kts 18°
2026-04-24 10:29 45.92494 21.52216 12388 ft 252 kts 18°
2026-04-24 10:30 45.94154 21.53024 13071 ft 255 kts
2026-04-24 10:30 45.95915 21.52752 13838 ft 258 kts 338°
2026-04-24 10:30 45.97407 21.51307 14531 ft 267 kts 318°
2026-04-24 10:30 45.98466 21.49039 15134 ft 280 kts 298°
2026-04-24 10:31 45.99191 21.46400 15779 ft 285 kts 295°
2026-04-24 10:31 45.99853 21.43716 16407 ft 290 kts 295°
2026-04-24 10:31 46.00522 21.40940 17048 ft 295 kts 295°
2026-04-24 10:31 46.01205 21.38123 17702 ft 299 kts 295°
2026-04-24 10:32 46.01896 21.35294 18211 ft 309 kts 295°
2026-04-24 10:32 46.02648 21.32267 18353 ft 330 kts 295°
2026-04-24 10:32 46.03449 21.29054 18498 ft 350 kts 295°
2026-04-24 10:32 46.04284 21.25696 18678 ft 366 kts 295°
2026-04-24 10:33 46.05157 21.22178 19103 ft 374 kts 295°
2026-04-24 10:33 46.06024 21.18666 19700 ft 376 kts 295°
2026-04-24 10:33 46.06908 21.15084 20294 ft 379 kts 295°
2026-04-24 10:33 46.07792 21.11509 20867 ft 382 kts 295°
2026-04-24 10:34 46.08697 21.07851 21418 ft 386 kts 295°
2026-04-24 10:34 46.09591 21.04233 21953 ft 389 kts 295°
2026-04-24 10:34 46.10509 21.00512 22488 ft 393 kts 295°
2026-04-24 10:34 46.11422 20.96809 23030 ft 396 kts 295°
2026-04-24 10:35 46.12354 20.93019 23552 ft 400 kts 295°
2026-04-24 10:35 46.13279 20.89252 23989 ft 403 kts 294°
2026-04-24 10:35 46.14080 20.85319 24428 ft 409 kts 288°
2026-04-24 10:35 46.14705 20.81349 24872 ft 412 kts 287°
2026-04-24 10:36 46.15337 20.77264 25303 ft 414 kts 288°
2026-04-24 10:36 46.15990 20.73245 25735 ft 416 kts 289°
2026-04-24 10:36 46.17036 20.69377 26108 ft 409 kts 307°
2026-04-24 10:36 46.18683 20.66027 26586 ft 406 kts 311°
2026-04-24 10:37 46.20361 20.62793 27115 ft 405 kts 312°
2026-04-24 10:37 46.22060 20.59533 27691 ft 403 kts 312°
2026-04-24 10:37 46.23723 20.56325 28241 ft 401 kts 311°
2026-04-24 10:37 46.25393 20.53080 28772 ft 401 kts 311°
2026-04-24 10:38 46.27056 20.49824 29302 ft 400 kts 311°
2026-04-24 10:38 46.28682 20.46624 29818 ft 399 kts 311°
2026-04-24 10:38 46.30338 20.43353 30205 ft 401 kts 311°
2026-04-24 10:38 46.31972 20.40123 30519 ft 403 kts 311°
2026-04-24 10:39 46.33635 20.36827 30856 ft 404 kts 311°
2026-04-24 10:39 46.35277 20.33566 31252 ft 403 kts 311°
2026-04-24 10:39 46.36935 20.30268 31662 ft 402 kts 311°
2026-04-24 10:39 46.38573 20.27008 32036 ft 402 kts 311°
2026-04-24 10:40 46.40220 20.23726 32393 ft 402 kts 311°
2026-04-24 10:40 46.41860 20.20457 32559 ft 407 kts 311°
2026-04-24 10:40 46.43538 20.17114 32616 ft 415 kts 311°
2026-04-24 10:41 46.46982 20.10234 32747 ft 428 kts 311°
2026-04-24 10:41 46.50536 20.03107 32876 ft 441 kts 310°
2026-04-24 10:42 46.54188 19.95759 32978 ft 453 kts 310°
2026-04-24 10:42 46.57903 19.88265 33211 ft 461 kts 310°
2026-04-24 10:42 46.59755 19.84517 33496 ft 460 kts 310°
2026-04-24 10:43 46.61632 19.80717 33867 ft 458 kts 310°
2026-04-24 10:43 46.63497 19.76939 34139 ft 458 kts 310°
2026-04-24 10:43 46.65346 19.73178 34335 ft 459 kts 309°
2026-04-24 10:43 46.66945 19.69113 34553 ft 465 kts 299°
2026-04-24 10:44 46.68095 19.64743 34807 ft 469 kts 290°
2026-04-24 10:44 46.68788 19.60068 35055 ft 472 kts 283°
2026-04-24 10:44 46.69272 19.55298 35285 ft 473 kts 282°
2026-04-24 10:44 46.69713 19.50520 35486 ft 473 kts 281°
2026-04-24 10:45 46.70142 19.45809 35710 ft 473 kts 281°
2026-04-24 10:45 46.70584 19.41058 35953 ft 472 kts 282°
2026-04-24 10:45 46.71034 19.36359 36035 ft 474 kts 282°
2026-04-24 10:46 46.71983 19.26731 36041 ft 481 kts 282°
2026-04-24 10:46 46.72939 19.17094 36048 ft 486 kts 282°
2026-04-24 10:47 46.73894 19.07367 36035 ft 484 kts 282°
2026-04-24 10:47 46.74839 18.97619 36051 ft 482 kts 282°
2026-04-24 10:48 46.75767 18.87972 36044 ft 482 kts 282°
2026-04-24 10:48 46.76693 18.78266 36048 ft 483 kts 282°
2026-04-24 10:49 46.77612 18.68528 36055 ft 483 kts 282°
2026-04-24 10:49 46.78515 18.58881 36051 ft 483 kts 281°
2026-04-24 10:50 46.79421 18.49104 36061 ft 483 kts 281°
2026-04-24 10:50 46.80309 18.39433 36058 ft 483 kts 281°
2026-04-24 10:51 46.81193 18.29712 36066 ft 483 kts 281°
2026-04-24 10:51 46.82076 18.19918 36065 ft 484 kts 281°
2026-04-24 10:52 46.82940 18.10168 36070 ft 484 kts 280°
2026-04-24 10:52 46.83569 18.00393 36071 ft 486 kts 278°
2026-04-24 10:53 46.84081 17.90555 36067 ft 486 kts 278°
2026-04-24 10:53 46.84604 17.80726 36071 ft 486 kts 278°
2026-04-24 10:54 46.85148 17.70881 36073 ft 486 kts 278°
2026-04-24 10:54 46.85694 17.61035 36081 ft 487 kts 278°
2026-04-24 10:55 46.86236 17.51119 36084 ft 487 kts 278°
2026-04-24 10:55 46.86763 17.41296 36089 ft 487 kts 278°
2026-04-24 10:56 46.87284 17.31413 36103 ft 488 kts 278°
2026-04-24 10:56 46.87798 17.21491 36095 ft 488 kts 278°
2026-04-24 10:57 46.88301 17.11599 36097 ft 489 kts 278°
2026-04-24 10:57 46.88798 17.01689 36095 ft 489 kts 278°
2026-04-24 10:58 46.89288 16.91716 36094 ft 490 kts 278°
2026-04-24 10:58 46.89767 16.81800 36094 ft 490 kts 278°
2026-04-24 10:59 46.90238 16.71874 36093 ft 490 kts 278°
2026-04-24 10:59 46.90700 16.61946 36094 ft 491 kts 278°
2026-04-24 11:00 46.91157 16.51960 36092 ft 491 kts 278°
2026-04-24 11:00 46.91604 16.41972 36098 ft 492 kts 278°
2026-04-24 11:01 46.92044 16.31971 36101 ft 493 kts 277°
2026-04-24 11:01 46.92473 16.22005 36097 ft 492 kts 277°
2026-04-24 11:02 46.92894 16.12022 36097 ft 492 kts 277°
2026-04-24 11:02 46.93306 16.02038 36097 ft 492 kts 277°
2026-04-24 11:03 46.93713 15.91989 36089 ft 493 kts 277°
2026-04-24 11:03 46.94108 15.82007 36084 ft 493 kts 277°
2026-04-24 11:04 46.94495 15.72004 36085 ft 493 kts 277°
2026-04-24 11:04 46.94873 15.62000 36078 ft 493 kts 277°
2026-04-24 11:05 46.95244 15.51985 36075 ft 494 kts 277°
2026-04-24 11:05 46.95598 15.41907 36070 ft 494 kts 276°
2026-04-24 11:06 46.95841 15.31849 36075 ft 495 kts 275°
2026-04-24 11:06 46.96042 15.21771 36078 ft 495 kts 275°
2026-04-24 11:07 46.96346 15.06698 36071 ft 496 kts 275°
2026-04-24 11:07 46.96539 14.96792 36065 ft 475 kts 275°
2026-04-24 11:08 46.96694 14.88758 36072 ft 473 kts 275°
2026-04-24 11:08 46.96876 14.79172 36092 ft 472 kts 275°
2026-04-24 11:09 46.97050 14.69529 36080 ft 472 kts 275°
2026-04-24 11:09 46.97213 14.59893 36077 ft 472 kts 275°
2026-04-24 11:10 46.97366 14.50322 36089 ft 471 kts 275°
2026-04-24 11:10 46.97512 14.40738 36087 ft 470 kts 275°
2026-04-24 11:11 46.97649 14.31168 36087 ft 470 kts 275°
2026-04-24 11:11 46.97779 14.21615 36095 ft 471 kts 274°
2026-04-24 11:12 46.97840 14.16839 35948 ft 465 kts 274°
2026-04-24 11:12 46.97898 14.12103 35390 ft 464 kts 275°
2026-04-24 11:12 46.97956 14.07416 34713 ft 467 kts 275°
2026-04-24 11:12 46.98014 14.02597 33878 ft 474 kts 275°
2026-04-24 11:13 46.98075 13.97728 33004 ft 479 kts 276°
2026-04-24 11:13 46.98425 13.92885 32186 ft 476 kts 287°
2026-04-24 11:13 46.99243 13.88253 31503 ft 474 kts 290°
2026-04-24 11:13 47.00117 13.83572 30824 ft 475 kts 290°
2026-04-24 11:14 47.00986 13.78895 30080 ft 476 kts 290°
2026-04-24 11:14 47.01843 13.74218 29223 ft 477 kts 289°
2026-04-24 11:14 47.02696 13.69481 28379 ft 477 kts 289°
2026-04-24 11:14 47.03535 13.64761 27505 ft 478 kts 288°
2026-04-24 11:15 47.04364 13.60059 26581 ft 479 kts 288°
2026-04-24 11:15 47.05197 13.55308 25729 ft 479 kts 288°
2026-04-24 11:15 47.06016 13.50612 24977 ft 476 kts 288°
2026-04-24 11:15 47.06830 13.45921 24474 ft 468 kts 287°
2026-04-24 11:16 47.07629 13.41315 23956 ft 461 kts 288°
2026-04-24 11:16 47.08425 13.36717 23364 ft 455 kts 288°
2026-04-24 11:16 47.09194 13.32293 23177 ft 452 kts 288°
2026-04-24 11:16 47.09974 13.27790 23165 ft 457 kts 288°
2026-04-24 11:17 47.10762 13.23225 23075 ft 459 kts 287°
2026-04-24 11:17 47.11535 13.18743 23128 ft 454 kts 287°
2026-04-24 11:17 47.12315 13.14215 23141 ft 459 kts 287°
2026-04-24 11:17 47.13097 13.09638 23138 ft 458 kts 287°
2026-04-24 11:18 47.13859 13.05148 23124 ft 455 kts 287°
2026-04-24 11:18 47.14619 13.00663 23126 ft 453 kts 287°
2026-04-24 11:18 47.15382 12.96160 23134 ft 452 kts 287°
2026-04-24 11:18 47.16138 12.91690 23134 ft 453 kts 287°
2026-04-24 11:19 47.16899 12.87182 23134 ft 454 kts 287°
2026-04-24 11:19 47.17661 12.82661 23129 ft 456 kts 287°
2026-04-24 11:19 47.18417 12.78166 23135 ft 455 kts 286°
2026-04-24 11:19 47.19169 12.73666 22805 ft 444 kts 286°
2026-04-24 11:20 47.19898 12.69290 22128 ft 442 kts 287°
2026-04-24 11:20 47.20634 12.64874 21321 ft 442 kts 287°
2026-04-24 11:20 47.21355 12.60534 20634 ft 440 kts 286°
2026-04-24 11:20 47.22081 12.56143 20022 ft 436 kts 286°
2026-04-24 11:21 47.22789 12.51852 19468 ft 432 kts 287°
2026-04-24 11:21 47.23492 12.47596 19201 ft 431 kts 286°
2026-04-24 11:21 47.24200 12.43300 19170 ft 428 kts 285°
2026-04-24 11:21 47.24902 12.39017 19165 ft 425 kts 286°
2026-04-24 11:22 47.25593 12.34804 19155 ft 427 kts 285°
2026-04-24 11:22 47.26281 12.30591 19165 ft 427 kts 286°
2026-04-24 11:22 47.26975 12.26332 19157 ft 426 kts 285°
2026-04-24 11:22 47.27667 12.22071 19168 ft 425 kts 285°
2026-04-24 11:23 47.28347 12.17870 19177 ft 425 kts 285°
2026-04-24 11:23 47.29036 12.13606 19171 ft 426 kts 285°
2026-04-24 11:23 47.29714 12.09396 19145 ft 422 kts 285°
2026-04-24 11:23 47.30382 12.05226 18700 ft 409 kts 285°
2026-04-24 11:24 47.31022 12.01238 18079 ft 397 kts 285°
2026-04-24 11:24 47.31658 11.97270 17145 ft 393 kts 285°
2026-04-24 11:24 47.32281 11.93379 16213 ft 389 kts 285°
2026-04-24 11:24 47.32894 11.89529 15485 ft 381 kts 285°
2026-04-24 11:25 47.33423 11.85753 14527 ft 379 kts 284°
2026-04-24 11:25 47.33831 11.81858 13331 ft 386 kts 273°
2026-04-24 11:25 47.33488 11.77945 12258 ft 388 kts 256°
2026-04-24 11:25 47.32529 11.74213 11203 ft 386 kts 247°
2026-04-24 11:26 47.31418 11.70774 10797 ft 356 kts 245°
2026-04-24 11:26 47.30347 11.67711 10370 ft 333 kts 244°
2026-04-24 11:26 47.29455 11.64640 9855 ft 315 kts 255°
2026-04-24 11:26 47.28911 11.61583 9101 ft 307 kts 258°
2026-04-24 11:27 47.28467 11.58493 8122 ft 299 kts 261°
2026-04-24 11:27 47.28125 11.55583 7304 ft 282 kts 263°
2026-04-24 11:27 47.27850 11.52809 6484 ft 270 kts 263°
2026-04-24 11:27 47.27604 11.50113 5654 ft 258 kts 262°
2026-04-24 11:28 47.27300 11.47553 4827 ft 248 kts 261°
2026-04-24 11:28 47.27087 11.45164 4474 ft 225 kts 264°
2026-04-24 11:28 47.26959 11.42940 4081 ft 204 kts 264°
2026-04-24 11:28 47.26712 11.40963 3552 ft 193 kts 261°
2026-04-24 11:29 47.26516 11.39049 2828 ft 193 kts 262°
2026-04-24 11:29 47.26304 11.37063 2138 ft 191 kts 262°
2026-04-24 11:29 47.26114 11.35252 1911 ft 165 kts 262°
2026-04-24 11:29 47.25980 11.34016 1899 ft 43 kts 261°
2026-04-24 11:30 47.25941 11.33728 1910 ft 18 kts 235°
2026-04-24 11:30 47.25871 11.33751 1916 ft 10 kts 132°
2026-04-24 11:30 47.25831 11.33836 1907 ft 12 kts 125°
2026-04-24 11:30 47.25793 11.33922 1908 ft 16 kts 120°
2026-04-24 11:31 47.25774 11.34105 1900 ft 21 kts 91°
2026-04-24 11:31 47.25791 11.34296 1900 ft 20 kts 82°
2026-04-24 11:31 47.25819 11.34495 1896 ft 20 kts 77°
2026-04-24 11:31 47.25841 11.34697 1897 ft 20 kts 82°
2026-04-24 11:32 47.25859 11.34900 1900 ft 20 kts 82°
2026-04-24 11:32 47.25838 11.35049 1898 ft 6 kts 159°
2026-04-24 11:32 47.25834 11.35050 1896 ft 0 kts 171°